User: anonymous   Login
Location: Quebec
(46.8000°N, 71.2500°W)
Time: 11:23:53
(UTC-04:00)
Language:

CZ-4B R/B - Orbit

View from above orbital plane
View from above orbital plane
View from above satellite
View from above satellite

Ground track
Ground track

The orbit data is extracted from the following two-line orbital elements,

1 29093U 06015B   17296.45341496  .00005887  00000-0  13688-3 0  9993
2 29093  97.5068  50.5918 0061634 215.1752 144.5419 15.40730977637277
Epoch (UTC): 23 October 2017 10:52:55
Eccentricity: 0.0061634
inclination: 97.5068°
perigee height: 402 km
apogee height: 486 km
right ascension of ascending node: 50.5918°
argument of perigee: 215.1752°
revolutions per day: 15.40730977
mean anomaly at epoch: 144.5419°
orbit number at epoch: 63727

The dashed part of the orbit path shows where the satellite is in the earth's shadow,  

DLR